Location: USNO
(38.9242°N, 77.0663°W)
Time: 23:31:25
(UTC-04:00)

ISS - Pass Details

Date: 16 October 2017
Orbit: 401 x 408 km, 51.6° (Epoch: 20 October)

Event Time Altitude Azimuth Distance (km) Brightness Sun altitude
Rises 19:17:59 0° 303° (WNW) 2,323 1.0 -10.5°
Reaches altitude 10° 19:20:08 10° 296° (WNW) 1,461 0.0 -10.9°
Maximum altitude 19:23:15 41° 224° (SW) 598 -2.6 -11.5°
Drops below altitude 10° 19:26:21 10° 152° (SSE) 1,456 -1.3 -12.1°
Enters shadow 19:27:24 - 148° (SSE) 1,875 -0.8 -12.3°
